Location: Unspecified
(43.4680°N, 87.1740°E)
Time: 04:34:21
(UTC+00:00)

Cosmos 2237 Rocket - Pass Details

Date: 17 April 2021
Orbit: 836 x 848 km, 71.0° (Epoch: 16 May)

Event Time Altitude Azimuth Distance (km) Brightness Sun altitude
Rises 14:44:29 0° 340° (NNW) 3,404 6.3 -18.4°
Reaches altitude 10° 14:47:06 10° 348° (NNW) 2,463 5.3 -18.8°
Maximum altitude 14:52:23 40° 57° (ENE) 1,228 2.9 -19.5°
Enters shadow 14:54:05 32° 95° (E) 1,405 2.9 -19.8°
